Regional Weather Roundup
Issued by NWS Wakefield, VA

Home | Current Version | Previous Version | Graphics & Text | Print | Product List | Glossary On
Versions: 1 2 3 4 5 6 7 8 9 10 11 12 13 14 15 16 17 18 19 20 21 22 23 24 25 26 27
000
ASUS41 KAKQ 232310
RWRAKQ

REGIONAL WEATHER ROUNDUP
NATIONAL WEATHER SERVICE WAKEFIELD VA
700 PM EDT THU OCT 23 2014

Note: "fair" indicates few or no clouds below 12,000 feet with no
significant weather and/or obstructions to visibility. * = Denotes
station may not report precipitation (e.g., rain,snow,etc.),
thunder or fog.

VAZ042-051-052>054-056-240000-
NORTHERN VIRGINIA

CITY           SKY/WX    TMP DP  RH WIND       PRES   REMARKS
WASH NATIONAL  MOCLDY    66  43  43 NW9       29.87S
DULLES         MOCLDY    62  42  47 NW13      29.88S
FORT BELVOIR   CLOUDY    62  46  55 W7        29.88R
QUANTICO       MOCLDY    60  45  57 NW7       29.90R
FREDERICKSBRG* CLEAR     61  45  55 W6        29.90R
STAFFORD*      CLEAR     58  42  55 W6        29.94R
WARRENTON      CLEAR     58  50  73 W8        29.90S
CULPEPER*      CLEAR     61  45  55 W5        29.92S
MANASSAS*      MOCLDY    61  45  55 W9        29.89S
LEESBURG*      CLOUDY    64  45  48 NW18G26   29.89S
WINCHESTER     PTCLDY    61  36  39 W15       29.94R
FRONT ROYAL*   MOCLDY    57  43  58 NW3       29.95R
LURAY*         CLOUDY    59  45  58 S6        29.98R
$$

VAZ048-049-060>072-079>083-240000-
CENTRAL AND SOUTH CENTRAL VIRGINIA...AND NORTH CENTRAL NORTH CAROLINA

CITY           SKY/WX    TMP DP  RH WIND       PRES   REMARKS
RICHMOND       PTCLDY    61  43  51 N8        29.91R
CHESTERFIELD*    N/A    N/A N/A N/A MISG        N/A
PETERSBURG*    CLEAR     62  43  50 N8        29.93R
HANOVER        CLEAR     59  44  57 NW3       29.93S
TAPPAHANNOCK*  PTCLDY    60  41  50 W3        29.89S
CHARLOTTSVILLE CLEAR     59  41  51 NW5       29.95R
ORANGE*        CLEAR     59  45  58 SW6       29.94R
LOUISA*        CLEAR     55  46  71 W5        29.92R
FARMVILLE*     CLEAR     61  43  51 CALM      29.92R
CREWE*         CLEAR     59  44  57 NE3       29.92R
FORT PICKETT*  CLEAR     59  45  60 N7        29.92R
LUNENBURG*     CLEAR     56  52  85 CALM      29.93R
SOUTH HILL*    CLEAR     57  48  72 CALM      29.97R
LAWRENCEVILLE* CLEAR     57  50  77 CALM      29.91R
ROANOKE RAPIDS CLEAR     57  48  72 CALM      29.91R
RALEIGH        PTCLDY    63  43  48 NW5       29.96R
$$

VAZ088>098-240000-
SOUTHEAST VIRGINIA

CITY           SKY/WX    TMP DP  RH WIND       PRES   REMARKS
NORFOLK        CLEAR     63  45  51 VRB7      29.87R
VIRGINIA BEACH PTCLDY    62  46  55 NW10      29.86R
NORFOLK NAVAL  PTCLDY    64  46  52 NW14      29.90R
WEST POINT*    MOCLDY    63  43  47 W7        29.90S
NEWPORT NEWS   CLEAR     63  46  54 NW9       29.89R
LANGLEY AFB    CLEAR     61  47  59 NW10      29.88R
FORT EUSTIS    CLEAR     62  44  50 NW14G20   29.88R
WILLIAMSBURG*  CLEAR     63  48  59 NW10G20   29.90R
HR EXEC AP*    CLEAR     57  48  72 NW5       29.90R
FRANKLIN*      CLEAR     61  48  63 CALM      29.90R
WAKEFIELD      CLEAR     56  50  80 CALM      29.90R
$$

VAZ020-022-025-037-045-240000-
WEST CENTRAL AND SOUTHWEST VIRGINIA

CITY           SKY/WX    TMP DP  RH WIND       PRES   REMARKS
STAUNTON*      CLEAR     55  40  56 N5        30.02R
HOT SPRINGS VA CLOUDY    40  39  93 NW16G29   30.01S
LYNCHBURG      CLEAR     57  40  52 N5        29.98R
DANVILLE       CLEAR     60  43  53 W8        29.97R
SOUTH BOSTON*  NOT AVBL
MARTINSVILLE   CLEAR     57  41  54 NW14      30.02R
ROANOKE        PTCLDY    52  40  63 NW7       30.05R
BLACKSBURG     CLEAR     48  43  81 CALM      30.08S
DUBLIN*        CLEAR     51  42  70 NW7G18    30.09R
MARION*        CLEAR     46  39  74 W9        30.13R
HILLSVILLE*    CLEAR     47  39  74 W8        30.08R
RICHLANDS*     CLOUDY    49  41  74 NW6       30.13R
WISE*          CLEAR     45  37  76 N3        30.14S
ABINGDON*      CLEAR     51  40  67 CALM      30.13R
$$

MDZ021>025-VAZ099-100-240000-
SOUTHERN MARYLAND AND THE DELMARVA PENINSULA

CITY           SKY/WX    TMP DP  RH WIND       PRES   REMARKS
PATUXENT RIVER MOCLDY    61  46  57 NW15      29.86R
BAY BRIDGE APT   N/A     61  46  59 NW7       29.85R
LEONARDTOWN    MOCLDY    59  43  55 W3        29.88R
DOVER          MOCLDY    56  47  70 NW10      29.81R
GEORGETOWN     CLOUDY    57  46  66 NW7       29.83R
EASTON         CLOUDY    59  50  72 N6        29.89R
CAMBRIDGE      CLOUDY    61  46  59 NW8G17    29.84R
SALISBURY      CLOUDY    60  48  64 NW10      29.84R
OCEAN CITY     CLOUDY    56  47  71 NW14G21   29.81R
WALLOPS ISLAND CLOUDY    61  48  62 NW13      29.83R
ACCOMACK*      CLOUDY    61  46  59 NW16G24   29.85R
$$

NCZ012>017-030>032-240000-
EASTERN NORTH CAROLINA

CITY           SKY/WX    TMP DP  RH WIND       PRES   REMARKS
ELIZABETH CITY CLEAR     59  47  64 W6        29.88R
AHOSKIE*       CLEAR     58  50  74 CALM      29.91R
EDENTON*       CLEAR     59  50  72 W3        29.90R
CURRITUCK*     PTCLDY    63  47  55 CALM      29.89R
KILL DEVIL HLS CLEAR     61  51  69 W5        29.87R
MANTEO         CLEAR     62  49  63 NW7       29.88R
CAPE HATTERAS  CLEAR     62  50  64 NW10      29.90R
TARBORO*       CLEAR     59  48  67 W3        29.93R
GOLDSBORO      CLEAR     61  52  73 W3        29.91R
WASHINGTON     CLEAR     59  49  70 CALM      29.91S
GREENVILLE     CLEAR     61  48  63 CALM      29.94R
NEW BERN       CLEAR     60  51  72 W3        29.93R
WILMINGTON     CLEAR     63  46  54 W5        29.95R
$$

VAZ048-240000-
ELSEWHERE

CITY           SKY/WX    TMP DP  RH WIND       PRES   REMARKS
HARRISBURG PA  CLOUDY    61  43  51 N14       29.86R
BALTIMORE      CLOUDY    62  44  51 NW9       29.85R
ANNAPOLIS      CLOUDY    62  48  60 NW5       29.85R
ANDREWS AFB    CLOUDY    62  45  54 NW13      29.86R
WILMINGTON DE  CLOUDY    56  45  66 NW22G28   29.84R
PHILADELPHIA   MOCLDY    55  43  63 NW14      29.82R
WILDWOOD NJ*   CLOUDY    55  43  62 NW10G16   29.82R
ATLANTIC CITY  CLOUDY    53  45  74 NW16      29.77R
HENDERSON NC   CLEAR     58  43  57 CALM      29.95R
GREENSBORO     PTCLDY    61  42  49 NW10      29.98R
ROCKY MOUNT    CLEAR     63  46  54 NW6       29.93R
FAYETTEVILLE   CLEAR     64  46  52 W5        29.95R
CHARLOTTE      PTCLDY    56  40  55 CALM      30.01R
$$

VAZ100-240000-
MARINE

STATION/POSITION TIME  TEMP    WIND        PRES    WAVE   SWELL
                       AIR SEA DIR/SP/G            HT/PER HT/PER
                 (UTC) (F)     (DEG/KT/KT) (MB)    (FT/S) (FT/S)
44066 TX TWR #4  2300   57 66  320/ 25/ 31 1002.9R  10/ 7
CAPE MAY NJ      2300   57 63  330/ 17/ 24 1008.6R
LEWES DE         2300   58 59  330/ 22/ 26 1009.0S
15NM E FENWICK I 2300   59 65  310/ 25/ 31 1008.0R   8/ 6
OCEAN-CITY-INLET 2300   58 62  330/ 11/ 14 1009.0R
WACHAPREAGUE VA  2300   62 60  300/  3/ 15 1010.5R
THOMAS POINT MD  2300   62 62  330/  8/  9 1011.9R
GOOSES REEF MD   2300   62     340/ 16/ 19 1011.0S
COVE POINT MD    2300   61     330/ 13/ 18 1010.6R
SOLOMONS ISLAND  2300      64                N/A
BISHOPS HEAD MD  2300   61 56  310/ 17/ 21 1010.0S
PINEY POINT MD   2300          340/ 16/ 18   N/A
POTOMAC MD       2300   63     330/ 17/ 21 1010.6R
CAMBRIDGE MD     2300   61 60  300/ 11/ 17 1010.0R
LEWISETTA VA     2300   62 60  340/  8/ 12 1011.1S
RAPPAHANNOCK LGT 2300          300/ 28/ 31 1011.4R
STINGRAY PT      2300   63     320/ 19/ 25 1011.8R
YORK RVR RNG VA  2300   63     340/ 19/ 23 1011.1R
YORKTOWN VA      2300   63 65  330/ 18/ 23 1011.4R
JAMESTOWN VA     2300   62     360/ 12/ 17   N/A
DOMINION TERM VA 2300   64     330/ 12/ 16 1011.6R
KIPTOPEKE VA     2300      65  320/ 21/ 24   N/A
CHES BAY BRIDGE  2300   64 65  290/ 19/ 21 1010.9R
CHESAPEAKE LGHT  2200   64     310/ 24/ 26 1011.2R
WILLOUBY STN VA  2300   64     340/ 14/ 18 1010.3R
S CRANEY ISL VA  2300          290/  9/ 15 1011.2R
CAPE HENRY BUOY  2300      68                N/A     5/ 5
1ST LANDING BUOY 2300   65     310/ 19/ 25 1010.8R
CAPE CHARLES BUO 2300      67                N/A     4/ 8   2/ 8
64NM E OF VA BCH 2300   65 67  310/ 25/ 31 1009.2R   7/ 6
DUCK PIER NC     2300   63 66  300/  7/  8 1010.8R
44100 DUCK FRF   2300      68                N/A     5/ 7
44056 DUCK FRF   2300                        N/A     4/ 8
OREGON INLET NC  2300   61 64  280/  6/  8 1011.7R
HATTERAS NC      2300   65 63  310/ 16/ 18 1012.7R
DIAMOND SHLS NC  2300   65     300/ 17/ 21 1012.2R   5/ 5   2/ 8
CAPE LOOKOUT NC  2200   66     300/ 12/ 15 1012.4R
$$



USA.gov is the U.S. government's official web portal to all federal, state and local government web resources and services.